Wind_Speed
21 22 22 22 22 21 22 22 22 21 20 20 21 22 22 23 23 24 24 24 24 23 22 22 22 23 24 24 24 24 24 23 24 25 25 26 27 28 29 30 30 31 32 33
22 23 23 23 23 22 21 21 21 21 20 21 22 22 23 23 23 24 24 23 23 23 22 23 23 23 23 24 24 25 25 24 24 24 25 26 27 28 29 29 30 32 32 32
22 22 22 23 21 21 21 20 21 21 21 21 21 22 22 23 23 23 24 24 24 23 23 23 24 23 24 24 25 25 25 25 25 25 26 27 28 28 29 30 31 31 31 32
22 22 23 21 21 21 21 21 21 21 21 21 21 22 22 23 23 23 24 24 25 24 23 24 24 24 24 25 25 25 26 26 26 26 26 27 28 29 30 31 31 31 31 32
22 22 22 21 21 21 21 21 21 21 21 21 22 22 22 23 22 23 24 24 24 24 24 24 24 24 24 24 25 25 26 26 25 25 26 26 27 28 29 30 31 31 31 31
23 24 23 21 21 21 22 22 21 21 21 21 22 22 22 23 23 22 22 23 23 23 24 24 24 24 24 24 24 24 24 24 25 26 27 27 28 28 28 28 28 28 27 26
23 23 22 21 21 21 21 21 21 21 21 21 22 22 22 23 23 23 22 22 22 23 24 24 24 23 23 23 23 23 23 23 24 25 26 27 27 27 27 26 26 25 25 24
22 22 21 20 20 20 21 21 21 22 22 22 22 22 23 23 24 24 23 22 22 23 23 23 23 22 21 21 22 22 22 22 23 24 25 25 25 25 25 25 24 25 24 24
22 21 20 20 21 21 22 22 22 23 23 22 22 22 22 23 23 23 23 23 23 23 22 21 21 21 20 20 21 21 21 22 23 24 24 24 24 24 24 24 23 23 23 23
22 20 20 20 21 22 23 23 23 23 23 22 23 22 22 22 23 23 23 23 23 23 22 21 21 21 20 20 21 21 21 22 22 22 23 23 24 23 23 22 22 21 21 21
22 21 21 20 21 23 24 24 24 23 23 23 22 22 22 23 23 22 22 22 22 22 22 22 21 21 21 20 19 19 20 20 20 21 21 21 22 22 21 21 20 20 19 20
21 21 21 20 21 23 23 24 24 24 23 23 23 23 23 23 23 22 21 22 22 23 22 22 22 21 20 19 19 18 19 19 20 19 19 19 19 20 20 19 19 19 19 19
22 21 21 21 22 22 23 23 24 24 24 24 24 23 23 23 23 22 22 23 23 23 22 22 22 21 19 19 19 19 19 19 19 18 18 17 18 18 18 18 19 19 19 20
22 22 22 22 22 23 23 24 24 24 24 24 23 23 23 23 23 23 23 23 23 23 22 22 21 20 20 19 19 19 19 19 18 18 17 18 18 18 18 18 18 18 19 19
22 22 22 23 23 24 24 24 23 23 24 24 24 23 23 23 22 22 21 22 22 22 21 21 20 20 20 20 20 20 20 20 19 18 18 18 18 18 18 18 18 18 18 19
23 23 23 23 24 24 25 24 24 24 24 24 23 22 22 22 22 21 21 22 22 22 22 21 20 20 20 20 20 20 20 19 19 18 18 18 18 18 18 17 17 18 18 19
24 24 24 24 24 24 24 24 24 24 23 23 22 22 22 22 22 22 22 22 21 21 21 22 21 21 20 20 19 18 18 18 18 18 17 17 17 17 16 16 16 17 17 18
24 24 24 24 24 24 23 23 23 22 21 21 21 21 21 22 22 22 22 21 21 20 20 21 21 20 20 20 19 19 19 19 18 18 17 17 17 17 16 16 16 16 17 18
24 24 24 25 24 23 22 22 22 21 21 20 20 21 21 21 21 22 21 20 21 21 21 21 21 20 20 20 20 19 19 19 19 19 19 18 18 18 17 17 17 18 18 18
24 24 24 24 24 23 22 21 21 20 20 20 20 20 21 21 21 21 21 21 21 21 22 22 21 21 20 20 20 21 21 21 21 21 20 20 20 19 19 19 18 18 18 17
24 24 24 23 23 23 23 22 22 21 21 21 21 21 21 21 22 22 21 21 22 22 22 22 21 21 21 21 22 22 21 21 21 21 22 22 21 20 20 20 19 18 17 17
24 24 23 23 23 23 23 23 22 22 22 21 21 22 22 22 22 23 23 23 23 23 22 22 22 22 22 23 23 23 22 22 22 22 21 21 20 20 20 19 18 18 18 18
24 24 24 24 24 24 23 23 22 22 22 22 22 22 23 23 23 23 23 23 23 23 23 23 24 23 23 23 23 23 23 23 23 22 22 21 20 20 20 19 19 19 19 18
24 24 24 24 24 24 24 23 23 23 23 23 23 23 23 23 23 23 24 24 24 24 24 24 24 24 24 24 23 23 23 23 22 22 22 21 21 20 20 20 20 20 20 19
25 25 25 25 26 26 25 25 24 24 24 24 24 24 24 24 24 24 25 25 25 25 25 25 25 25 25 24 24 23 22 22 22 22 22 21 21 21 21 21 21 20 20 20
26 26 27 27 27 26 26 26 25 25 25 25 25 25 25 25 25 25 26 26 26 25 25 26 26 25 25 24 24 23 22 22 22 22 22 22 21 21 21 21 21 20 20 20
27 27 27 27 27 27 26 26 26 26 26 26 26 26 26 26 26 26 26 27 26 26 26 26 26 25 24 23 23 22 22 22 22 22 22 22 21 21 21 21 21 20 20 20
Wind_Direction
277 275 278 280 279 279 281 282 282 284 286 290 292 292 293 293 291 290 292 292 290 287 284 283 282 280 280 279 277 275 275 274 273 273 272 274 275 274 273 272 271 270 269 268
278 276 277 276 276 277 279 280 281 283 285 289 292 293 293 294 293 291 292 293 292 289 285 284 284 281 279 278 278 276 274 274 273 273 274 275 277 277 276 274 272 271 270 270
281 279 277 276 278 277 278 281 283 285 286 287 291 294 295 295 294 292 291 292 291 289 287 286 285 283 280 279 278 276 275 275 274 275 276 276 277 278 277 276 274 272 272 273
283 282 281 284 281 279 278 280 283 284 285 288 289 294 297 297 295 293 292 293 292 290 289 286 286 285 282 280 278 276 275 275 275 275 277 277 278 277 278 276 274 275 275 277
285 284 284 285 284 282 281 283 286 286 286 289 291 291 294 297 298 296 295 294 293 292 292 289 287 285 283 281 278 278 276 276 275 276 277 278 279 279 278 276 275 275 275 277
286 285 285 288 286 284 283 284 286 287 288 289 292 292 295 296 296 297 299 297 294 293 294 292 290 287 283 281 279 280 279 278 278 277 277 278 279 280 280 277 275 275 275 275
287 288 287 287 287 286 286 289 287 289 291 292 293 294 295 295 295 296 297 297 296 297 296 294 293 291 287 283 282 281 280 280 281 281 280 280 280 279 280 279 275 274 274 271
289 288 288 288 287 288 289 290 289 290 291 291 292 293 294 295 296 297 298 298 298 299 296 294 294 291 287 285 285 284 284 284 284 285 285 284 284 283 281 281 278 274 274 271
289 290 289 288 287 287 287 287 288 289 289 288 291 293 294 295 296 297 297 298 298 299 297 294 292 292 291 289 288 286 286 287 286 286 286 286 285 285 284 280 278 277 274 272
288 289 288 287 286 286 286 286 289 290 289 288 291 291 291 293 294 295 295 296 297 299 299 297 295 294 292 291 291 288 287 287 287 287 287 287 287 287 284 279 278 277 277 273
289 289 288 286 286 286 286 286 287 290 291 290 290 289 290 292 294 294 295 296 296 298 299 299 297 295 295 293 293 292 289 287 288 290 291 288 286 286 285 282 279 277 277 273
290 289 288 288 287 286 286 286 287 289 290 290 289 288 289 292 294 295 295 296 297 299 299 298 296 295 293 291 289 290 292 288 288 291 293 291 287 285 285 284 282 277 275 274
287 286 286 288 289 289 287 286 286 288 290 291 290 287 289 292 293 293 293 294 295 297 298 297 295 293 290 287 287 287 290 290 291 292 292 290 289 287 284 282 279 276 273 274
284 284 285 287 288 289 289 288 286 288 289 289 290 288 289 291 294 294 291 291 292 295 297 296 294 292 290 285 286 287 288 288 288 288 287 286 286 286 284 280 276 274 273 273
281 283 286 288 289 289 290 288 286 287 288 288 289 290 290 291 293 293 292 291 291 294 296 296 294 292 291 288 287 285 285 286 282 281 281 282 283 283 282 281 279 276 273 273
277 281 285 288 289 288 289 287 285 286 286 287 289 290 291 291 292 291 291 292 292 293 295 296 295 292 292 291 289 286 285 286 284 280 279 278 280 282 283 283 281 281 280 278
276 279 283 287 288 288 288 287 285 285 286 287 287 288 289 291 291 290 290 291 291 291 294 295 294 293 290 289 289 287 287 286 285 284 282 280 281 281 282 283 283 283 282 282
277 278 282 285 287 287 287 287 287 286 288 288 287 288 289 291 291 291 291 290 291 293 295 297 296 293 290 289 288 287 287 286 286 285 284 283 283 282 280 281 283 284 284 284
275 278 281 284 286 285 285 285 284 284 286 288 288 289 290 291 292 293 292 292 292 293 294 297 298 295 290 289 289 289 289 288 288 285 283 282 281 279 278 279 282 284 285 286
274 277 280 283 284 283 283 283 282 280 283 286 287 288 291 292 292 293 293 293 293 293 294 295 296 295 292 290 291 290 289 287 287 286 284 282 280 276 276 278 281 282 283 283
275 277 279 282 283 282 281 281 280 279 282 284 286 288 290 291 291 292 292 292 293 294 294 295 295 294 293 292 292 291 289 288 286 285 283 281 278 275 274 275 277 279 279 280
274 276 277 278 279 280 281 281 280 279 281 282 284 287 289 291 292 292 291 291 292 292 292 293 294 295 294 293 292 289 288 288 288 286 284 280 277 273 272 273 275 276 277 277
273 274 275 277 277 278 280 281 280 279 279 282 283 285 287 289 291 292 293 292 291 292 292 293 294 295 296 294 291 288 286 286 286 284 281 278 274 273 272 273 275 276 277 277
272 273 274 277 278 278 278 279 279 278 278 281 284 285 286 287 289 292 293 294 292 291 291 293 294 295 295 294 292 288 285 285 285 283 280 276 273 271 271 272 274 275 277 276
270 272 273 276 277 277 277 278 279 278 278 280 283 284 285 286 288 291 292 293 293 290 290 291 293 295 294 293 291 287 284 283 283 282 280 277 274 271 270 271 272 274 275 275
269 270 272 275 276 276 277 278 278 277 277 279 281 283 285 286 288 290 291 292 292 291 290 290 292 294 294 293 291 287 284 283 282 281 278 276 274 272 270 270 272 274 275 275
268 270 272 275 275 275 276 277 277 276 276 277 280 282 283 285 287 288 290 290 290 290 291 291 291 292 292 292 290 287 283 282 282 281 278 275 273 272 271 271 272 275 276 275
Height
5633 5632 5630 5629 5628 5627 5625 5624 5623 5622 5621 5621 5618 5615 5613 5611 5609 5607 5604 5602 5599 5597 5595 5594 5592 5590 5589 5588 5587 5585 5584 5583 5582 5582 5581 5580 5579 5578 5577 5576 5576 5576 5576 5576
5627 5625 5624 5622 5622 5621 5619 5618 5617 5616 5616 5614 5611 5609 5607 5605 5603 5601 5598 5596 5593 5590 5589 5587 5585 5584 5582 5581 5579 5578 5577 5576 5575 5574 5573 5572 5571 5570 5569 5568 5567 5567 5566 5566
5621 5619 5617 5617 5617 5615 5614 5613 5612 5610 5610 5607 5606 5603 5601 5599 5596 5594 5592 5590 5587 5584 5582 5580 5578 5576 5575 5573 5572 5570 5569 5568 5567 5566 5565 5564 5563 5562 5561 5559 5558 5557 5557 5557
5614 5614 5612 5614 5611 5609 5608 5607 5606 5604 5603 5602 5600 5598 5595 5593 5590 5588 5585 5583 5580 5578 5575 5573 5571 5569 5567 5565 5564 5563 5562 5561 5559 5558 5557 5556 5555 5554 5552 5551 5549 5549 5548 5548
5608 5606 5606 5607 5605 5603 5601 5601 5600 5598 5597 5595 5593 5592 5590 5587 5584 5581 5579 5576 5573 5571 5568 5566 5564 5561 5559 5558 5557 5555 5554 5553 5552 5551 5550 5548 5546 5545 5543 5542 5541 5540 5539 5538
5602 5600 5600 5602 5600 5597 5596 5595 5594 5592 5590 5589 5587 5586 5585 5581 5578 5575 5572 5569 5567 5564 5561 5559 5556 5554 5552 5551 5549 5548 5547 5545 5544 5543 5541 5540 5538 5536 5535 5533 5532 5531 5531 5530
5596 5594 5594 5596 5593 5591 5591 5591 5588 5585 5584 5582 5581 5579 5577 5574 5572 5569 5566 5563 5561 5558 5555 5552 5550 5547 5546 5544 5542 5541 5539 5538 5536 5535 5533 5531 5530 5528 5527 5525 5525 5524 5524 5523
5590 5589 5591 5589 5587 5586 5585 5582 5581 5579 5577 5576 5574 5572 5570 5568 5565 5563 5560 5557 5555 5552 5549 5546 5544 5541 5539 5537 5536 5534 5532 5531 5529 5527 5525 5523 5522 5520 5519 5518 5517 5517 5516 5516
5586 5587 5584 5582 5580 5579 5577 5576 5574 5572 5571 5569 5568 5566 5564 5562 5559 5556 5554 5551 5549 5546 5543 5540 5538 5535 5533 5531 5529 5528 5526 5523 5522 5520 5518 5516 5515 5513 5512 5511 5510 5510 5509 5508
5579 5579 5578 5576 5574 5572 5571 5569 5567 5566 5564 5563 5561 5559 5558 5555 5553 5551 5548 5545 5543 5540 5537 5535 5532 5530 5528 5525 5523 5521 5519 5517 5515 5513 5511 5509 5508 5506 5505 5504 5503 5503 5502 5502
5572 5572 5571 5570 5567 5566 5564 5562 5561 5559 5558 5556 5554 5553 5551 5549 5547 5545 5542 5539 5537 5534 5531 5529 5526 5524 5522 5519 5517 5515 5513 5511 5509 5507 5505 5503 5502 5500 5499 5498 5497 5497 5496 5496
5567 5566 5564 5563 5561 5559 5557 5556 5554 5553 5551 5549 5548 5546 5544 5542 5540 5538 5536 5533 5531 5529 5526 5523 5520 5518 5516 5514 5511 5509 5507 5505 5503 5501 5499 5497 5496 5494 5493 5492 5491 5491 5490 5490
5559 5558 5556 5555 5554 5552 5550 5549 5547 5546 5544 5543 5541 5539 5537 5536 5534 5531 5529 5527 5525 5523 5520 5517 5515 5512 5510 5508 5506 5504 5502 5500 5498 5496 5494 5492 5491 5489 5488 5486 5485 5485 5485 5484
5551 5550 5549 5548 5547 5545 5543 5542 5540 5539 5537 5535 5534 5532 5530 5529 5527 5525 5523 5521 5519 5516 5514 5511 5509 5506 5504 5502 5500 5499 5497 5495 5493 5491 5489 5487 5485 5484 5483 5481 5480 5479 5479 5479
5544 5543 5542 5541 5540 5538 5536 5534 5533 5531 5530 5528 5526 5525 5523 5522 5520 5518 5516 5514 5512 5510 5508 5505 5503 5501 5498 5496 5495 5493 5491 5489 5487 5486 5484 5482 5480 5479 5477 5476 5475 5474 5474 5474
5537 5536 5535 5533 5532 5530 5528 5527 5526 5524 5522 5521 5519 5518 5516 5514 5513 5511 5510 5508 5506 5504 5502 5499 5497 5495 5493 5491 5489 5487 5486 5484 5482 5480 5478 5477 5475 5474 5473 5472 5471 5470 5469 5469
5529 5528 5527 5526 5525 5523 5521 5519 5518 5516 5515 5514 5512 5511 5509 5508 5506 5505 5503 5502 5500 5498 5496 5494 5492 5489 5487 5485 5483 5482 5480 5479 5477 5475 5473 5472 5470 5469 5468 5467 5466 5465 5464 5464
5521 5520 5519 5518 5517 5515 5514 5512 5510 5509 5508 5506 5505 5504 5503 5501 5500 5498 5497 5495 5494 5492 5490 5488 5485 5483 5482 5480 5478 5476 5475 5473 5472 5470 5468 5467 5466 5465 5464 5463 5462 5461 5460 5459
5513 5513 5512 5511 5509 5508 5506 5504 5503 5502 5501 5500 5498 5497 5496 5495 5493 5492 5490 5489 5488 5486 5484 5482 5480 5478 5476 5474 5472 5471 5469 5468 5466 5465 5463 5461 5460 5459 5458 5458 5457 5456 5455 5454
5505 5505 5504 5503 5502 5500 5499 5497 5496 5495 5494 5493 5492 5491 5490 5489 5487 5486 5484 5483 5481 5479 5478 5476 5474 5472 5470 5468 5466 5465 5463 5462 5460 5458 5457 5456 5454 5453 5453 5452 5451 5450 5449 5448
5497 5497 5496 5495 5494 5493 5492 5490 5489 5488 5487 5487 5486 5485 5484 5482 5481 5479 5478 5477 5475 5473 5471 5469 5467 5465 5463 5461 5460 5458 5456 5455 5453 5452 5450 5449 5448 5447 5446 5445 5445 5444 5443 5443
5489 5489 5488 5487 5486 5485 5484 5483 5482 5481 5480 5480 5479 5478 5477 5476 5474 5473 5471 5470 5468 5466 5464 5462 5460 5458 5456 5455 5453 5451 5449 5448 5446 5445 5443 5442 5441 5440 5440 5439 5439 5438 5437 5437
5481 5481 5480 5479 5478 5478 5477 5476 5475 5474 5473 5473 5472 5471 5470 5468 5467 5465 5464 5462 5460 5459 5457 5455 5453 5451 5449 5447 5445 5444 5442 5441 5439 5438 5436 5435 5434 5434 5434 5433 5432 5432 5431 5431
5473 5472 5472 5471 5470 5470 5469 5468 5467 5467 5466 5465 5464 5463 5462 5461 5459 5458 5456 5455 5453 5451 5449 5447 5446 5444 5442 5440 5438 5436 5435 5433 5432 5430 5429 5428 5428 5427 5427 5426 5426 5426 5425 5425
5464 5464 5464 5463 5462 5462 5461 5460 5460 5459 5458 5458 5456 5455 5454 5453 5452 5450 5448 5447 5445 5443 5442 5440 5438 5436 5434 5432 5430 5428 5427 5426 5424 5423 5422 5421 5421 5420 5420 5420 5419 5419 5419 5418
5456 5455 5455 5454 5454 5453 5453 5452 5451 5451 5450 5449 5448 5447 5446 5445 5443 5442 5440 5438 5437 5435 5434 5432 5430 5428 5426 5425 5423 5421 5420 5419 5417 5416 5415 5414 5414 5413 5413 5413 5412 5412 5412 5411
5446 5446 5446 5445 5445 5444 5444 5443 5442 5442 5441 5440 5440 5438 5437 5436 5435 5433 5431 5430 5428 5426 5425 5424 5422 5420 5419 5417 5416 5414 5413 5412 5410 5409 5408 5407 5406 5406 5406 5406 5406 5405 5405 5404